Location: Central Falls
(41.8900°N, 71.3929°W)
Time: 04:24:39
(UTC+00:00)

Vanguard 2 - Pass Details

Date: 07 December 2023
Orbit: 554 x 2918 km, 32.9° (Epoch: 01 March)

Event Time Altitude Azimuth Distance (km) Brightness Sun altitude
Rises 04:15:11 0° 265° (W) 6,699 12.4 -70.2°
Enters shadow 04:19:02 - 263° (W) 5,774 11.9 -70.3°
Reaches altitude 10° 04:20:01 10° 262° (W) 5,536 - -70.4°
Maximum altitude 04:35:17 55° 191° (S) 2,439 - -70.7°
Drops below altitude 10° 04:45:09 10° 117° (ESE) 3,691 - -70.6°
Sets 04:47:43 0° 112° (ESE) 4,400 - -70.5°
